EW6193 Weather Reports


Display with metric or nautical units.
time (UTC)temp
F
wind
direction
speed
MPH
gust
MPH
rain 1hr
in
rain 24hr
in
rain mn
in
humidity
%
barometer
mb
20260508030036 63 333 1.0 6.0 0.02 0.48 0.31 85 1002.4
20260508024528 63 42 3.0 7.0 0.01 0.47 0.30 85 1002.0
20260508023025 63 245 2.0 5.0 0.01 0.47 0.30 84 1002.4
20260508021524 64 328 3.0 8.0 0.00 0.46 0.28 81 1002.7
20260508020029 65 311 0.0 5.0 0.00 0.46 0.28 80 1003.2
20260508014520 65 267 2.0 9.0 0.00 0.46 0.28 82 1004.2
20260508013014 64 262 3.0 9.0 0.00 0.46 0.28 83 1004.6
20260508011514 64 264 5.0 13.0 0.01 0.46 0.28 83 1004.7
20260508010010 64 278 3.0 7.0 0.02 0.46 0.28 85 1005.2
20260508004513 63 252 3.0 8.0 0.02 0.46 0.28 86 1005.5
20260508003006 63 271 2.0 9.0 0.02 0.46 0.28 88 1005.9
20260508001510 63 275 2.0 9.0 0.02 0.46 0.28 88 1005.9
20260508000003 64 277 3.0 8.0 0.02 0.45 0.28 88 1006.1
20260507234503 64 323 4.0 9.0 0.02 0.44 0.27 89 1006.1
20260507233003 64 269 1.0 8.0 0.02 0.44 0.27 91 1006.2
20260507231600 64 349 1.0 4.0 0.02 0.43 0.26 92 1006.2
20260507230059 64 55 1.0 3.0 0.02 0.43 0.26 92 1006.2
20260507224602 64 40 2.0 4.0 0.02 0.43 0.25 93 1006.2
20260507223057 64 50 2.0 5.0 0.02 0.42 0.24 93 1006.3
20260507221554 64 71 0.0 2.0 0.02 0.41 0.24 93 1006.7
20260507220053 63 79 0.0 3.0 0.02 0.41 0.24 93 1006.8
20260507214553 63 248 0.0 4.0 0.03 0.40 0.23 93 1006.9
20260507213048 63 85 0.0 2.0 0.05 0.39 0.22 93 1007.3
20260507211546 63 114 0.0 2.0 0.06 0.39 0.22 93 1007.3
20260507210045 63 87 0.0 1.0 0.07 0.40 0.22 93 1007.7
20260507204550 63 330 0.0 1.0 0.06 0.38 0.20 92 1008.0
20260507203042 63 267 0.0 4.0 0.04 0.35 0.17 92 1007.9
20260507201551 63 288 1.0 6.0 0.04 0.35 0.17 92 1007.8
20260507200042 63 304 0.0 3.0 0.03 0.33 0.15 92 1007.9
20260507194541 63 312 0.0 5.0 0.02 0.32 0.14 92 1007.7
20260507193042 62 276 0.0 5.0 0.02 0.31 0.13 92 1007.7
20260507191540 62 64 1.0 5.0 0.00 0.30 0.12 92 1007.7
20260507190039 62 42 1.0 5.0 0.01 0.30 0.12 92 1007.5
20260507184537 62 82 0.0 3.0 0.02 0.30 0.12 92 1007.8
20260507183037 62 53 0.0 0.0 0.02 0.30 0.12 92 1007.9
20260507181535 62 70 0.0 2.0 0.02 0.30 0.12 92 1007.8
20260507180037 63 293 0.0 3.0 0.02 0.28 0.11 91 1008.1
20260507174540 63 241 1.0 4.0 0.02 0.28 0.10 91 1008.1
20260507173035 62 241 1.0 4.0 0.02 0.28 0.10 92 1008.1
20260507171535 62 296 0.0 0.0 0.01 0.28 0.09 91 1008.3
20260507170040 62 301 0.0 3.0 0.02 0.28 0.09 91 1008.3
20260507164527 62 244 1.0 6.0 0.02 0.27 0.09 91 1008.3
20260507163026 63 284 0.0 6.0 0.02 0.27 0.09 91 1008.4
20260507161524 63 260 3.0 8.0 0.02 0.27 0.09 93 1008.4
20260507160023 61 227 0.0 3.0 0.02 0.26 0.08 93 1008.6
20260507154522 61 247 0.0 0.0 0.01 0.25 0.07 93 1008.8
20260507153021 61 246 0.0 0.0 0.02 0.25 0.07 92 1008.9
20260507151515 61 246 0.0 0.0 0.01 0.24 0.06 92 1009.0
20260507150013 62 247 0.0 0.0 0.01 0.24 0.06 91 1009.2
20260507144512 62 254 0.0 6.0 0.02 0.24 0.06 92 1009.3
20260507143008 62 250 0.0 1.0 0.01 0.24 0.06 91 1009.7
20260507141505 63 254 0.0 4.0 0.02 0.24 0.06 91 1009.8
20260507140006 63 254 1.0 6.0 0.02 0.23 0.05 91 1009.8
20260507134503 63 265 2.0 7.0 0.02 0.23 0.05 91 1009.9
20260507133108 63 276 2.0 8.0 0.02 0.23 0.05 92 1010.1
20260507131603 63 271 3.0 7.0 0.02 0.22 0.04 92 1010.2
20260507130109 62 265 2.0 5.0 0.03 0.21 0.03 92 1010.5
20260507124556 62 323 1.0 5.0 0.04 0.21 0.03 92 1010.5
20260507123054 62 278 1.0 5.0 0.06 0.21 0.03 92 1010.5
20260507121603 62 275 2.0 6.0 0.04 0.20 0.02 92 1010.5
20260507120050 63 269 1.0 4.0 0.03 0.18 0.18 92 1010.7
20260507114601 63 233 3.0 6.0 0.02 0.17 0.17 91 1010.7
20260507113048 63 265 1.0 9.0 0.02 0.16 0.16 91 1010.7
20260507111545 63 248 4.0 11.0 0.02 0.16 0.16 90 1010.8
20260507110046 63 245 5.0 12.0 0.02 0.15 0.15 91 1010.8
20260507104545 63 277 3.0 12.0 0.02 0.15 0.15 90 1010.9
20260507103045 63 255 5.0 12.0 0.02 0.14 0.14 90 1010.9
20260507101544 63 290 4.0 10.0 0.02 0.13 0.13 90 1010.8
20260507100043 63 287 5.0 13.0 0.02 0.13 0.13 89 1010.8
20260507094544 63 303 5.0 18.0 0.02 0.13 0.13 88 1010.7
20260507093048 63 245 5.0 13.0 0.02 0.12 0.12 88 1010.9
20260507091546 63 312 3.0 9.0 0.02 0.12 0.12 88 1011.1
20260507090039 63 284 5.0 12.0 0.01 0.11 0.11 87 1011.3
20260507084536 63 285 3.0 8.0 0.00 0.10 0.10 85 1011.4
20260507083033 64 272 5.0 13.0 0.00 0.10 0.10 83 1011.5
20260507081540 64 236 5.0 12.0 0.00 0.10 0.10 82 1011.6
20260507080024 64 297 3.0 12.0 0.01 0.10 0.10 80 1011.9
20260507074543 63 271 6.0 13.0 0.02 0.10 0.10 83 1012.2
20260507073021 62 278 1.0 8.0 0.02 0.10 0.10 87 1012.0
20260507071520 62 260 1.0 8.0 0.02 0.10 0.10 88 1012.4
20260507070021 62 276 2.0 10.0 0.04 0.09 0.09 88 1012.5
20260507064518 62 283 1.0 4.0 0.03 0.09 0.09 88 1012.3
20260507063024 62 264 4.0 12.0 0.02 0.08 0.08 87 1012.6
20260507061517 63 263 3.0 8.0 0.03 0.08 0.08 85 1012.7
20260507060015 63 241 1.0 10.0 0.02 0.06 0.06 84 1012.9
20260507054515 63 276 4.0 14.0 0.02 0.06 0.06 84 1012.8
20260507053014 63 310 6.0 14.0 0.02 0.06 0.06 85 1012.6
20260507051513 63 309 6.0 14.0 0.02 0.05 0.05 85 1012.7
20260507050024 63 317 4.0 12.0 0.02 0.04 0.04 83 1012.6
20260507044512 63 290 6.0 13.0 0.02 0.03 0.03 82 1012.5
20260507043020 63 276 7.0 19.0 0.02 0.03 0.03 84 1012.6
20260507041510 62 264 5.0 14.0 0.01 0.02 0.02 86 1012.8
20260507040009 63 276 5.0 13.0 0.02 0.02 0.02 84 1012.8
20260507034508 63 246 5.0 11.0 0.01 0.02 0.02 83 1012.8
20260507033016 63 269 5.0 12.0 0.01 0.02 0.02 85 1013.1
20260507031506 63 273 5.0 13.0 0.01 0.02 0.02 84 1013.4